Index of /20260501/WXO-DD/model_rdps/10km/00/081
Name Last modified Size Description
Parent Directory -
20260501T00Z_MSC_RDPS_AbsoluteVorticity_IsbL-0250_RLatLon0.09_PT081H.grib2 2026-05-01 03:07 614K
20260501T00Z_MSC_RDPS_AbsoluteVorticity_IsbL-0500_RLatLon0.09_PT081H.grib2 2026-05-01 03:07 567K
20260501T00Z_MSC_RDPS_AbsoluteVorticity_IsbL-0700_RLatLon0.09_PT081H.grib2 2026-05-01 03:07 611K
20260501T00Z_MSC_RDPS_AbsoluteVorticity_IsbL-0850_RLatLon0.09_PT081H.grib2 2026-05-01 03:07 793K
20260501T00Z_MSC_RDPS_AirTemp_AGL-120m_RLatLon0.09_PT081H.grib2 2026-05-01 03:07 378K
20260501T00Z_MSC_RDPS_AirTemp_AGL-2m_RLatLon0.09_PT081H.grib2 2026-05-01 03:07 639K
20260501T00Z_MSC_RDPS_AirTemp_AGL-40m_RLatLon0.09_PT081H.grib2 2026-05-01 03:07 394K
20260501T00Z_MSC_RDPS_AirTemp_AGL-80m_RLatLon0.09_PT081H.grib2 2026-05-01 03:07 385K
20260501T00Z_MSC_RDPS_AirTemp_IsbL-0001_RLatLon0.09_PT081H.grib2 2026-05-01 03:07 301K
20260501T00Z_MSC_RDPS_AirTemp_IsbL-0005_RLatLon0.09_PT081H.grib2 2026-05-01 03:07 288K
20260501T00Z_MSC_RDPS_AirTemp_IsbL-0010_RLatLon0.09_PT081H.grib2 2026-05-01 03:07 299K
20260501T00Z_MSC_RDPS_AirTemp_IsbL-0020_RLatLon0.09_PT081H.grib2 2026-05-01 03:07 413K
20260501T00Z_MSC_RDPS_AirTemp_IsbL-0030_RLatLon0.09_PT081H.grib2 2026-05-01 03:07 340K
20260501T00Z_MSC_RDPS_AirTemp_IsbL-0050_RLatLon0.09_PT081H.grib2 2026-05-01 03:07 319K
20260501T00Z_MSC_RDPS_AirTemp_IsbL-0100_RLatLon0.09_PT081H.grib2 2026-05-01 03:07 429K
20260501T00Z_MSC_RDPS_AirTemp_IsbL-0150_RLatLon0.09_PT081H.grib2 2026-05-01 03:07 416K
20260501T00Z_MSC_RDPS_AirTemp_IsbL-0175_RLatLon0.09_PT081H.grib2 2026-05-01 03:07 405K
20260501T00Z_MSC_RDPS_AirTemp_IsbL-0200_RLatLon0.09_PT081H.grib2 2026-05-01 03:07 412K
20260501T00Z_MSC_RDPS_AirTemp_IsbL-0225_RLatLon0.09_PT081H.grib2 2026-05-01 03:07 418K
20260501T00Z_MSC_RDPS_AirTemp_IsbL-0250_RLatLon0.09_PT081H.grib2 2026-05-01 03:07 425K
20260501T00Z_MSC_RDPS_AirTemp_IsbL-0275_RLatLon0.09_PT081H.grib2 2026-05-01 03:07 404K
20260501T00Z_MSC_RDPS_AirTemp_IsbL-0300_RLatLon0.09_PT081H.grib2 2026-05-01 03:07 434K
20260501T00Z_MSC_RDPS_AirTemp_IsbL-0350_RLatLon0.09_PT081H.grib2 2026-05-01 03:07 426K
20260501T00Z_MSC_RDPS_AirTemp_IsbL-0400_RLatLon0.09_PT081H.grib2 2026-05-01 03:07 395K
20260501T00Z_MSC_RDPS_AirTemp_IsbL-0450_RLatLon0.09_PT081H.grib2 2026-05-01 03:07 401K
20260501T00Z_MSC_RDPS_AirTemp_IsbL-0500_RLatLon0.09_PT081H.grib2 2026-05-01 03:07 409K
20260501T00Z_MSC_RDPS_AirTemp_IsbL-0550_RLatLon0.09_PT081H.grib2 2026-05-01 03:07 462K
20260501T00Z_MSC_RDPS_AirTemp_IsbL-0600_RLatLon0.09_PT081H.grib2 2026-05-01 03:07 478K
20260501T00Z_MSC_RDPS_AirTemp_IsbL-0650_RLatLon0.09_PT081H.grib2 2026-05-01 03:07 457K
20260501T00Z_MSC_RDPS_AirTemp_IsbL-0700_RLatLon0.09_PT081H.grib2 2026-05-01 03:07 480K
20260501T00Z_MSC_RDPS_AirTemp_IsbL-0750_RLatLon0.09_PT081H.grib2 2026-05-01 03:07 407K
20260501T00Z_MSC_RDPS_AirTemp_IsbL-0800_RLatLon0.09_PT081H.grib2 2026-05-01 03:07 578K
20260501T00Z_MSC_RDPS_AirTemp_IsbL-0850_RLatLon0.09_PT081H.grib2 2026-05-01 03:07 642K
20260501T00Z_MSC_RDPS_AirTemp_IsbL-0875_RLatLon0.09_PT081H.grib2 2026-05-01 03:07 664K
20260501T00Z_MSC_RDPS_AirTemp_IsbL-0900_RLatLon0.09_PT081H.grib2 2026-05-01 03:07 539K
20260501T00Z_MSC_RDPS_AirTemp_IsbL-0925_RLatLon0.09_PT081H.grib2 2026-05-01 03:07 528K
20260501T00Z_MSC_RDPS_AirTemp_IsbL-0950_RLatLon0.09_PT081H.grib2 2026-05-01 03:07 527K
20260501T00Z_MSC_RDPS_AirTemp_IsbL-0970_RLatLon0.09_PT081H.grib2 2026-05-01 03:07 519K
20260501T00Z_MSC_RDPS_AirTemp_IsbL-0985_RLatLon0.09_PT081H.grib2 2026-05-01 03:07 506K
20260501T00Z_MSC_RDPS_AirTemp_IsbL-1000_RLatLon0.09_PT081H.grib2 2026-05-01 03:07 492K
20260501T00Z_MSC_RDPS_AirTemp_IsbL-1015_RLatLon0.09_PT081H.grib2 2026-05-01 03:07 496K
20260501T00Z_MSC_RDPS_Albedo_Sfc_RLatLon0.09_PT081H.grib2 2026-05-01 03:07 159K
20260501T00Z_MSC_RDPS_CAPE_Sfc_RLatLon0.09_PT081H.grib2 2026-05-01 03:07 1.6M
20260501T00Z_MSC_RDPS_CIN_Sfc_RLatLon0.09_PT081H.grib2 2026-05-01 03:07 1.1M
20260501T00Z_MSC_RDPS_CloudWater_EAtm_RLatLon0.09_PT081H.grib2 2026-05-01 03:07 222K
20260501T00Z_MSC_RDPS_ConvectivePrecip-Accum_Sfc_RLatLon0.09_PT081H.grib2 2026-05-01 03:07 1.3M
20260501T00Z_MSC_RDPS_DewPointDepression_AGL-2m_RLatLon0.09_PT081H.grib2 2026-05-01 03:07 400K
20260501T00Z_MSC_RDPS_DewPointDepression_IsbL-0001_RLatLon0.09_PT081H.grib2 2026-05-01 03:07 193
20260501T00Z_MSC_RDPS_DewPointDepression_IsbL-0005_RLatLon0.09_PT081H.grib2 2026-05-01 03:07 193
20260501T00Z_MSC_RDPS_DewPointDepression_IsbL-0010_RLatLon0.09_PT081H.grib2 2026-05-01 03:07 193
20260501T00Z_MSC_RDPS_DewPointDepression_IsbL-0020_RLatLon0.09_PT081H.grib2 2026-05-01 03:07 193
20260501T00Z_MSC_RDPS_DewPointDepression_IsbL-0030_RLatLon0.09_PT081H.grib2 2026-05-01 03:07 193
20260501T00Z_MSC_RDPS_DewPointDepression_IsbL-0050_RLatLon0.09_PT081H.grib2 2026-05-01 03:07 77K
20260501T00Z_MSC_RDPS_DewPointDepression_IsbL-0100_RLatLon0.09_PT081H.grib2 2026-05-01 03:07 117K
20260501T00Z_MSC_RDPS_DewPointDepression_IsbL-0150_RLatLon0.09_PT081H.grib2 2026-05-01 03:07 139K
20260501T00Z_MSC_RDPS_DewPointDepression_IsbL-0175_RLatLon0.09_PT081H.grib2 2026-05-01 03:07 174K
20260501T00Z_MSC_RDPS_DewPointDepression_IsbL-0200_RLatLon0.09_PT081H.grib2 2026-05-01 03:07 213K
20260501T00Z_MSC_RDPS_DewPointDepression_IsbL-0225_RLatLon0.09_PT081H.grib2 2026-05-01 03:07 254K
20260501T00Z_MSC_RDPS_DewPointDepression_IsbL-0250_RLatLon0.09_PT081H.grib2 2026-05-01 03:07 295K
20260501T00Z_MSC_RDPS_DewPointDepression_IsbL-0275_RLatLon0.09_PT081H.grib2 2026-05-01 03:07 302K
20260501T00Z_MSC_RDPS_DewPointDepression_IsbL-0300_RLatLon0.09_PT081H.grib2 2026-05-01 03:07 322K
20260501T00Z_MSC_RDPS_DewPointDepression_IsbL-0350_RLatLon0.09_PT081H.grib2 2026-05-01 03:07 331K
20260501T00Z_MSC_RDPS_DewPointDepression_IsbL-0400_RLatLon0.09_PT081H.grib2 2026-05-01 03:07 341K
20260501T00Z_MSC_RDPS_DewPointDepression_IsbL-0450_RLatLon0.09_PT081H.grib2 2026-05-01 03:07 345K
20260501T00Z_MSC_RDPS_DewPointDepression_IsbL-0500_RLatLon0.09_PT081H.grib2 2026-05-01 03:07 346K
20260501T00Z_MSC_RDPS_DewPointDepression_IsbL-0550_RLatLon0.09_PT081H.grib2 2026-05-01 03:07 355K
20260501T00Z_MSC_RDPS_DewPointDepression_IsbL-0600_RLatLon0.09_PT081H.grib2 2026-05-01 03:07 368K
20260501T00Z_MSC_RDPS_DewPointDepression_IsbL-0650_RLatLon0.09_PT081H.grib2 2026-05-01 03:07 376K
20260501T00Z_MSC_RDPS_DewPointDepression_IsbL-0700_RLatLon0.09_PT081H.grib2 2026-05-01 03:07 384K
20260501T00Z_MSC_RDPS_DewPointDepression_IsbL-0750_RLatLon0.09_PT081H.grib2 2026-05-01 03:07 400K
20260501T00Z_MSC_RDPS_DewPointDepression_IsbL-0800_RLatLon0.09_PT081H.grib2 2026-05-01 03:07 442K
20260501T00Z_MSC_RDPS_DewPointDepression_IsbL-0850_RLatLon0.09_PT081H.grib2 2026-05-01 03:07 480K
20260501T00Z_MSC_RDPS_DewPointDepression_IsbL-0875_RLatLon0.09_PT081H.grib2 2026-05-01 03:07 479K
20260501T00Z_MSC_RDPS_DewPointDepression_IsbL-0900_RLatLon0.09_PT081H.grib2 2026-05-01 03:07 464K
20260501T00Z_MSC_RDPS_DewPointDepression_IsbL-0925_RLatLon0.09_PT081H.grib2 2026-05-01 03:07 446K
20260501T00Z_MSC_RDPS_DewPointDepression_IsbL-0950_RLatLon0.09_PT081H.grib2 2026-05-01 03:07 442K
20260501T00Z_MSC_RDPS_DewPointDepression_IsbL-0970_RLatLon0.09_PT081H.grib2 2026-05-01 03:07 437K
20260501T00Z_MSC_RDPS_DewPointDepression_IsbL-0985_RLatLon0.09_PT081H.grib2 2026-05-01 03:07 432K
20260501T00Z_MSC_RDPS_DewPointDepression_IsbL-1000_RLatLon0.09_PT081H.grib2 2026-05-01 03:07 429K
20260501T00Z_MSC_RDPS_DewPointDepression_IsbL-1015_RLatLon0.09_PT081H.grib2 2026-05-01 03:07 421K
20260501T00Z_MSC_RDPS_DewPoint_AGL-2m_RLatLon0.09_PT081H.grib2 2026-05-01 03:07 311K
20260501T00Z_MSC_RDPS_DownwardLongwaveRadiationFlux-Accum_Sfc_RLatLon0.09_PT081H.grib2 2026-05-01 03:07 438K
20260501T00Z_MSC_RDPS_DownwardShortwaveRadiationFlux-Accum_NTAtm_RLatLon0.09_PT081H.grib2 2026-05-01 03:07 110K
20260501T00Z_MSC_RDPS_DownwardShortwaveRadiationFlux-Accum_Sfc_RLatLon0.09_PT081H.grib2 2026-05-01 03:07 630K
20260501T00Z_MSC_RDPS_FreezingRain-Accum1h_Sfc_RLatLon0.09_PT081H.grib2 2026-05-01 03:07 41K
20260501T00Z_MSC_RDPS_FreezingRain-Accum3h_Sfc_RLatLon0.09_PT081H.grib2 2026-05-01 03:07 48K
20260501T00Z_MSC_RDPS_FreezingRain-Accum_Sfc_RLatLon0.09_PT081H.grib2 2026-05-01 03:07 232K
20260501T00Z_MSC_RDPS_GeopotentialHeight_IsbL-0001_RLatLon0.09_PT081H.grib2 2026-05-01 03:07 241K
20260501T00Z_MSC_RDPS_GeopotentialHeight_IsbL-0005_RLatLon0.09_PT081H.grib2 2026-05-01 03:07 306K
20260501T00Z_MSC_RDPS_GeopotentialHeight_IsbL-0010_RLatLon0.09_PT081H.grib2 2026-05-01 03:07 306K
20260501T00Z_MSC_RDPS_GeopotentialHeight_IsbL-0020_RLatLon0.09_PT081H.grib2 2026-05-01 03:07 403K
20260501T00Z_MSC_RDPS_GeopotentialHeight_IsbL-0030_RLatLon0.09_PT081H.grib2 2026-05-01 03:07 406K
20260501T00Z_MSC_RDPS_GeopotentialHeight_IsbL-0050_RLatLon0.09_PT081H.grib2 2026-05-01 03:07 312K
20260501T00Z_MSC_RDPS_GeopotentialHeight_IsbL-0100_RLatLon0.09_PT081H.grib2 2026-05-01 03:07 290K
20260501T00Z_MSC_RDPS_GeopotentialHeight_IsbL-0150_RLatLon0.09_PT081H.grib2 2026-05-01 03:07 231K
20260501T00Z_MSC_RDPS_GeopotentialHeight_IsbL-0175_RLatLon0.09_PT081H.grib2 2026-05-01 03:07 234K
20260501T00Z_MSC_RDPS_GeopotentialHeight_IsbL-0200_RLatLon0.09_PT081H.grib2 2026-05-01 03:07 266K
20260501T00Z_MSC_RDPS_GeopotentialHeight_IsbL-0225_RLatLon0.09_PT081H.grib2 2026-05-01 03:07 267K
20260501T00Z_MSC_RDPS_GeopotentialHeight_IsbL-0250_RLatLon0.09_PT081H.grib2 2026-05-01 03:07 269K
20260501T00Z_MSC_RDPS_GeopotentialHeight_IsbL-0275_RLatLon0.09_PT081H.grib2 2026-05-01 03:07 238K
20260501T00Z_MSC_RDPS_GeopotentialHeight_IsbL-0300_RLatLon0.09_PT081H.grib2 2026-05-01 03:07 237K
20260501T00Z_MSC_RDPS_GeopotentialHeight_IsbL-0350_RLatLon0.09_PT081H.grib2 2026-05-01 03:07 232K
20260501T00Z_MSC_RDPS_GeopotentialHeight_IsbL-0400_RLatLon0.09_PT081H.grib2 2026-05-01 03:07 303K
20260501T00Z_MSC_RDPS_GeopotentialHeight_IsbL-0450_RLatLon0.09_PT081H.grib2 2026-05-01 03:07 298K
20260501T00Z_MSC_RDPS_GeopotentialHeight_IsbL-0500_RLatLon0.09_PT081H.grib2 2026-05-01 03:07 294K
20260501T00Z_MSC_RDPS_GeopotentialHeight_IsbL-0550_RLatLon0.09_PT081H.grib2 2026-05-01 03:07 290K
20260501T00Z_MSC_RDPS_GeopotentialHeight_IsbL-0600_RLatLon0.09_PT081H.grib2 2026-05-01 03:07 286K
20260501T00Z_MSC_RDPS_GeopotentialHeight_IsbL-0650_RLatLon0.09_PT081H.grib2 2026-05-01 03:07 255K
20260501T00Z_MSC_RDPS_GeopotentialHeight_IsbL-0700_RLatLon0.09_PT081H.grib2 2026-05-01 03:07 254K
20260501T00Z_MSC_RDPS_GeopotentialHeight_IsbL-0750_RLatLon0.09_PT081H.grib2 2026-05-01 03:07 340K
20260501T00Z_MSC_RDPS_GeopotentialHeight_IsbL-0800_RLatLon0.09_PT081H.grib2 2026-05-01 03:07 349K
20260501T00Z_MSC_RDPS_GeopotentialHeight_IsbL-0850_RLatLon0.09_PT081H.grib2 2026-05-01 03:07 361K
20260501T00Z_MSC_RDPS_GeopotentialHeight_IsbL-0875_RLatLon0.09_PT081H.grib2 2026-05-01 03:07 364K
20260501T00Z_MSC_RDPS_GeopotentialHeight_IsbL-0900_RLatLon0.09_PT081H.grib2 2026-05-01 03:07 367K
20260501T00Z_MSC_RDPS_GeopotentialHeight_IsbL-0925_RLatLon0.09_PT081H.grib2 2026-05-01 03:07 368K
20260501T00Z_MSC_RDPS_GeopotentialHeight_IsbL-0950_RLatLon0.09_PT081H.grib2 2026-05-01 03:07 370K
20260501T00Z_MSC_RDPS_GeopotentialHeight_IsbL-0970_RLatLon0.09_PT081H.grib2 2026-05-01 03:07 288K
20260501T00Z_MSC_RDPS_GeopotentialHeight_IsbL-0985_RLatLon0.09_PT081H.grib2 2026-05-01 03:07 294K
20260501T00Z_MSC_RDPS_GeopotentialHeight_IsbL-1000_RLatLon0.09_PT081H.grib2 2026-05-01 03:07 303K
20260501T00Z_MSC_RDPS_GeopotentialHeight_IsbL-1015_RLatLon0.09_PT081H.grib2 2026-05-01 03:07 315K
20260501T00Z_MSC_RDPS_Humidex_Sfc_RLatLon0.09_PT081H.grib2 2026-05-01 03:07 2.4M
20260501T00Z_MSC_RDPS_IcePellets-Accum1h_Sfc_RLatLon0.09_PT081H.grib2 2026-05-01 03:07 3.2K
20260501T00Z_MSC_RDPS_IcePellets-Accum3h_Sfc_RLatLon0.09_PT081H.grib2 2026-05-01 03:07 3.2K
20260501T00Z_MSC_RDPS_IcePellets-Accum_Sfc_RLatLon0.09_PT081H.grib2 2026-05-01 03:07 37K
20260501T00Z_MSC_RDPS_KIndex_Sfc_RLatLon0.09_PT081H.grib2 2026-05-01 03:07 2.5M
20260501T00Z_MSC_RDPS_LatentHeatNetFlux_Sfc_RLatLon0.09_PT081H.grib2 2026-05-01 03:07 417K
20260501T00Z_MSC_RDPS_LiftedIndex-MU-VT_IsbL-0500_RLatLon0.09_PT081H.grib2 2026-05-01 03:07 2.4M
20260501T00Z_MSC_RDPS_NetLongwaveRadiationFlux-Accum_Sfc_RLatLon0.09_PT081H.grib2 2026-05-01 03:07 489K
20260501T00Z_MSC_RDPS_NetShortwaveRadiationFlux-Accum_Sfc_RLatLon0.09_PT081H.grib2 2026-05-01 03:07 634K
20260501T00Z_MSC_RDPS_PlanetaryBoundaryLayerHeight_Sfc_RLatLon0.09_PT081H.grib2 2026-05-01 03:07 1.1M
20260501T00Z_MSC_RDPS_Precip-Accum1h_Sfc_RLatLon0.09_PT081H.grib2 2026-05-01 03:07 1.3M
20260501T00Z_MSC_RDPS_Precip-Accum3h_Sfc_RLatLon0.09_PT081H.grib2 2026-05-01 03:07 1.4M
20260501T00Z_MSC_RDPS_Precip-Accum_Sfc_RLatLon0.09_PT081H.grib2 2026-05-01 03:07 2.1M
20260501T00Z_MSC_RDPS_PrecipRate_Sfc_RLatLon0.09_PT081H.grib2 2026-05-01 03:07 178K
20260501T00Z_MSC_RDPS_PrecipType-Instant_Sfc_RLatLon0.09_PT081H.grib2 2026-05-01 03:07 634K
20260501T00Z_MSC_RDPS_Pressure-Trend3h_Sfc_RLatLon0.09_PT081H.grib2 2026-05-01 03:07 1.2M
20260501T00Z_MSC_RDPS_Pressure_MSL_RLatLon0.09_PT081H.grib2 2026-05-01 03:07 327K
20260501T00Z_MSC_RDPS_Pressure_PVU-1.5_RLatLon0.09_PT081H.grib2 2026-05-01 03:07 2.3M
20260501T00Z_MSC_RDPS_Pressure_PVU-1_RLatLon0.09_PT081H.grib2 2026-05-01 03:07 2.4M
20260501T00Z_MSC_RDPS_Pressure_PVU-2_RLatLon0.09_PT081H.grib2 2026-05-01 03:07 2.4M
20260501T00Z_MSC_RDPS_Pressure_Sfc_RLatLon0.09_PT081H.grib2 2026-05-01 03:07 499K
20260501T00Z_MSC_RDPS_RadiativeTemp_Sfc_RLatLon0.09_PT081H.grib2 2026-05-01 03:07 306K
20260501T00Z_MSC_RDPS_Rain-Accum1h_Sfc_RLatLon0.09_PT081H.grib2 2026-05-01 03:07 564K
20260501T00Z_MSC_RDPS_Rain-Accum3h_Sfc_RLatLon0.09_PT081H.grib2 2026-05-01 03:07 630K
20260501T00Z_MSC_RDPS_Rain-Accum_Sfc_RLatLon0.09_PT081H.grib2 2026-05-01 03:07 1.8M
20260501T00Z_MSC_RDPS_RelativeHumidity_AGL-2m_RLatLon0.09_PT081H.grib2 2026-05-01 03:07 1.0M
20260501T00Z_MSC_RDPS_RelativeHumidity_IsbL-0010_RLatLon0.09_PT081H.grib2 2026-05-01 03:07 579K
20260501T00Z_MSC_RDPS_RelativeHumidity_IsbL-0020_RLatLon0.09_PT081H.grib2 2026-05-01 03:07 650K
20260501T00Z_MSC_RDPS_RelativeHumidity_IsbL-0030_RLatLon0.09_PT081H.grib2 2026-05-01 03:07 604K
20260501T00Z_MSC_RDPS_RelativeHumidity_IsbL-0050_RLatLon0.09_PT081H.grib2 2026-05-01 03:07 361K
20260501T00Z_MSC_RDPS_RelativeHumidity_IsbL-0100_RLatLon0.09_PT081H.grib2 2026-05-01 03:07 278K
20260501T00Z_MSC_RDPS_RelativeHumidity_IsbL-0150_RLatLon0.09_PT081H.grib2 2026-05-01 03:07 403K
20260501T00Z_MSC_RDPS_RelativeHumidity_IsbL-0175_RLatLon0.09_PT081H.grib2 2026-05-01 03:07 467K
20260501T00Z_MSC_RDPS_RelativeHumidity_IsbL-0200_RLatLon0.09_PT081H.grib2 2026-05-01 03:07 543K
20260501T00Z_MSC_RDPS_RelativeHumidity_IsbL-0225_RLatLon0.09_PT081H.grib2 2026-05-01 03:07 614K
20260501T00Z_MSC_RDPS_RelativeHumidity_IsbL-0250_RLatLon0.09_PT081H.grib2 2026-05-01 03:07 679K
20260501T00Z_MSC_RDPS_RelativeHumidity_IsbL-0275_RLatLon0.09_PT081H.grib2 2026-05-01 03:07 701K
20260501T00Z_MSC_RDPS_RelativeHumidity_IsbL-0300_RLatLon0.09_PT081H.grib2 2026-05-01 03:07 745K
20260501T00Z_MSC_RDPS_RelativeHumidity_IsbL-0350_RLatLon0.09_PT081H.grib2 2026-05-01 03:07 773K
20260501T00Z_MSC_RDPS_RelativeHumidity_IsbL-0400_RLatLon0.09_PT081H.grib2 2026-05-01 03:07 790K
20260501T00Z_MSC_RDPS_RelativeHumidity_IsbL-0450_RLatLon0.09_PT081H.grib2 2026-05-01 03:07 792K
20260501T00Z_MSC_RDPS_RelativeHumidity_IsbL-0500_RLatLon0.09_PT081H.grib2 2026-05-01 03:07 794K
20260501T00Z_MSC_RDPS_RelativeHumidity_IsbL-0550_RLatLon0.09_PT081H.grib2 2026-05-01 03:07 812K
20260501T00Z_MSC_RDPS_RelativeHumidity_IsbL-0600_RLatLon0.09_PT081H.grib2 2026-05-01 03:07 835K
20260501T00Z_MSC_RDPS_RelativeHumidity_IsbL-0650_RLatLon0.09_PT081H.grib2 2026-05-01 03:07 848K
20260501T00Z_MSC_RDPS_RelativeHumidity_IsbL-0700_RLatLon0.09_PT081H.grib2 2026-05-01 03:07 864K
20260501T00Z_MSC_RDPS_RelativeHumidity_IsbL-0750_RLatLon0.09_PT081H.grib2 2026-05-01 03:07 908K
20260501T00Z_MSC_RDPS_RelativeHumidity_IsbL-0800_RLatLon0.09_PT081H.grib2 2026-05-01 03:07 1.0M
20260501T00Z_MSC_RDPS_RelativeHumidity_IsbL-0850_RLatLon0.09_PT081H.grib2 2026-05-01 03:07 1.0M
20260501T00Z_MSC_RDPS_RelativeHumidity_IsbL-0875_RLatLon0.09_PT081H.grib2 2026-05-01 03:07 1.1M
20260501T00Z_MSC_RDPS_RelativeHumidity_IsbL-0900_RLatLon0.09_PT081H.grib2 2026-05-01 03:07 1.1M
20260501T00Z_MSC_RDPS_RelativeHumidity_IsbL-0925_RLatLon0.09_PT081H.grib2 2026-05-01 03:07 1.1M
20260501T00Z_MSC_RDPS_RelativeHumidity_IsbL-0950_RLatLon0.09_PT081H.grib2 2026-05-01 03:07 1.1M
20260501T00Z_MSC_RDPS_RelativeHumidity_IsbL-0970_RLatLon0.09_PT081H.grib2 2026-05-01 03:07 1.1M
20260501T00Z_MSC_RDPS_RelativeHumidity_IsbL-0985_RLatLon0.09_PT081H.grib2 2026-05-01 03:07 1.0M
20260501T00Z_MSC_RDPS_RelativeHumidity_IsbL-1000_RLatLon0.09_PT081H.grib2 2026-05-01 03:07 1.0M
20260501T00Z_MSC_RDPS_RelativeHumidity_IsbL-1015_RLatLon0.09_PT081H.grib2 2026-05-01 03:07 1.0M
20260501T00Z_MSC_RDPS_Runoff-Accum_Sfc_RLatLon0.09_PT081H.grib2 2026-05-01 03:07 73K
20260501T00Z_MSC_RDPS_SWEATIndex_Sfc_RLatLon0.09_PT081H.grib2 2026-05-01 03:07 2.4M
20260501T00Z_MSC_RDPS_SeeingIndex_EAtm_RLatLon0.09_PT081H.grib2 2026-05-01 03:07 1.1M
20260501T00Z_MSC_RDPS_SensibleHeatNetFlux_Sfc_RLatLon0.09_PT081H.grib2 2026-05-01 03:07 298K
20260501T00Z_MSC_RDPS_ShowalterIndex_IsbL-0500_RLatLon0.09_PT081H.grib2 2026-05-01 03:07 2.6M
20260501T00Z_MSC_RDPS_SkyTransparencyIndex_EAtm_RLatLon0.09_PT081H.grib2 2026-05-01 03:07 716K
20260501T00Z_MSC_RDPS_Snow-Accum1h_Sfc_RLatLon0.09_PT081H.grib2 2026-05-01 03:07 492K
20260501T00Z_MSC_RDPS_Snow-Accum3h_Sfc_RLatLon0.09_PT081H.grib2 2026-05-01 03:07 464K
20260501T00Z_MSC_RDPS_Snow-Accum_Sfc_RLatLon0.09_PT081H.grib2 2026-05-01 03:07 732K
20260501T00Z_MSC_RDPS_SnowDensity_Sfc_RLatLon0.09_PT081H.grib2 2026-05-01 03:07 173K
20260501T00Z_MSC_RDPS_SnowDepth_Sfc_RLatLon0.09_PT081H.grib2 2026-05-01 03:07 653K
20260501T00Z_MSC_RDPS_SoilTemp_DBS-0to10cm_RLatLon0.09_PT081H.grib2 2026-05-01 03:07 246K
20260501T00Z_MSC_RDPS_SoilTemp_Sfc_RLatLon0.09_PT081H.grib2 2026-05-01 03:07 271K
20260501T00Z_MSC_RDPS_SoilVolumetricIceContent_Sfc_RLatLon0.09_PT081H.grib2 2026-05-01 03:07 156K
20260501T00Z_MSC_RDPS_SoilVolumetricWaterContent_DBS-0to10cm_RLatLon0.09_PT081H.grib2 2026-05-01 03:07 276K
20260501T00Z_MSC_RDPS_SoilVolumetricWaterContent_DBS-0to1cm_RLatLon0.09_PT081H.grib2 2026-05-01 03:07 343K
20260501T00Z_MSC_RDPS_SpecificHumidity_AGL-120m_RLatLon0.09_PT081H.grib2 2026-05-01 03:07 494K
20260501T00Z_MSC_RDPS_SpecificHumidity_AGL-2m_RLatLon0.09_PT081H.grib2 2026-05-01 03:07 664K
20260501T00Z_MSC_RDPS_SpecificHumidity_AGL-40m_RLatLon0.09_PT081H.grib2 2026-05-01 03:07 501K
20260501T00Z_MSC_RDPS_SpecificHumidity_AGL-80m_RLatLon0.09_PT081H.grib2 2026-05-01 03:07 497K
20260501T00Z_MSC_RDPS_SpecificHumidity_IsbL-0001_RLatLon0.09_PT081H.grib2 2026-05-01 03:07 361K
20260501T00Z_MSC_RDPS_SpecificHumidity_IsbL-0005_RLatLon0.09_PT081H.grib2 2026-05-01 03:07 358K
20260501T00Z_MSC_RDPS_SpecificHumidity_IsbL-0010_RLatLon0.09_PT081H.grib2 2026-05-01 03:07 393K
20260501T00Z_MSC_RDPS_SpecificHumidity_IsbL-0020_RLatLon0.09_PT081H.grib2 2026-05-01 03:07 369K
20260501T00Z_MSC_RDPS_SpecificHumidity_IsbL-0030_RLatLon0.09_PT081H.grib2 2026-05-01 03:07 474K
20260501T00Z_MSC_RDPS_SpecificHumidity_IsbL-0050_RLatLon0.09_PT081H.grib2 2026-05-01 03:07 467K
20260501T00Z_MSC_RDPS_SpecificHumidity_IsbL-0100_RLatLon0.09_PT081H.grib2 2026-05-01 03:07 419K
20260501T00Z_MSC_RDPS_SpecificHumidity_IsbL-0150_RLatLon0.09_PT081H.grib2 2026-05-01 03:07 440K
20260501T00Z_MSC_RDPS_SpecificHumidity_IsbL-0175_RLatLon0.09_PT081H.grib2 2026-05-01 03:07 432K
20260501T00Z_MSC_RDPS_SpecificHumidity_IsbL-0200_RLatLon0.09_PT081H.grib2 2026-05-01 03:07 465K
20260501T00Z_MSC_RDPS_SpecificHumidity_IsbL-0225_RLatLon0.09_PT081H.grib2 2026-05-01 03:07 467K
20260501T00Z_MSC_RDPS_SpecificHumidity_IsbL-0250_RLatLon0.09_PT081H.grib2 2026-05-01 03:07 510K
20260501T00Z_MSC_RDPS_SpecificHumidity_IsbL-0275_RLatLon0.09_PT081H.grib2 2026-05-01 03:07 467K
20260501T00Z_MSC_RDPS_SpecificHumidity_IsbL-0300_RLatLon0.09_PT081H.grib2 2026-05-01 03:07 442K
20260501T00Z_MSC_RDPS_SpecificHumidity_IsbL-0350_RLatLon0.09_PT081H.grib2 2026-05-01 03:07 440K
20260501T00Z_MSC_RDPS_SpecificHumidity_IsbL-0400_RLatLon0.09_PT081H.grib2 2026-05-01 03:07 521K
20260501T00Z_MSC_RDPS_SpecificHumidity_IsbL-0450_RLatLon0.09_PT081H.grib2 2026-05-01 03:07 569K
20260501T00Z_MSC_RDPS_SpecificHumidity_IsbL-0500_RLatLon0.09_PT081H.grib2 2026-05-01 03:07 501K
20260501T00Z_MSC_RDPS_SpecificHumidity_IsbL-0550_RLatLon0.09_PT081H.grib2 2026-05-01 03:07 574K
20260501T00Z_MSC_RDPS_SpecificHumidity_IsbL-0600_RLatLon0.09_PT081H.grib2 2026-05-01 03:07 628K
20260501T00Z_MSC_RDPS_SpecificHumidity_IsbL-0650_RLatLon0.09_PT081H.grib2 2026-05-01 03:07 546K
20260501T00Z_MSC_RDPS_SpecificHumidity_IsbL-0700_RLatLon0.09_PT081H.grib2 2026-05-01 03:07 585K
20260501T00Z_MSC_RDPS_SpecificHumidity_IsbL-0750_RLatLon0.09_PT081H.grib2 2026-05-01 03:07 635K
20260501T00Z_MSC_RDPS_SpecificHumidity_IsbL-0800_RLatLon0.09_PT081H.grib2 2026-05-01 03:07 724K
20260501T00Z_MSC_RDPS_SpecificHumidity_IsbL-0850_RLatLon0.09_PT081H.grib2 2026-05-01 03:07 809K
20260501T00Z_MSC_RDPS_SpecificHumidity_IsbL-0875_RLatLon0.09_PT081H.grib2 2026-05-01 03:07 837K
20260501T00Z_MSC_RDPS_SpecificHumidity_IsbL-0900_RLatLon0.09_PT081H.grib2 2026-05-01 03:07 845K
20260501T00Z_MSC_RDPS_SpecificHumidity_IsbL-0925_RLatLon0.09_PT081H.grib2 2026-05-01 03:07 841K
20260501T00Z_MSC_RDPS_SpecificHumidity_IsbL-0950_RLatLon0.09_PT081H.grib2 2026-05-01 03:07 843K
20260501T00Z_MSC_RDPS_SpecificHumidity_IsbL-0970_RLatLon0.09_PT081H.grib2 2026-05-01 03:07 697K
20260501T00Z_MSC_RDPS_SpecificHumidity_IsbL-0985_RLatLon0.09_PT081H.grib2 2026-05-01 03:07 689K
20260501T00Z_MSC_RDPS_SpecificHumidity_IsbL-1000_RLatLon0.09_PT081H.grib2 2026-05-01 03:07 683K
20260501T00Z_MSC_RDPS_SpecificHumidity_IsbL-1015_RLatLon0.09_PT081H.grib2 2026-05-01 03:07 676K
20260501T00Z_MSC_RDPS_SpecificHumidity_Sfc_RLatLon0.09_PT081H.grib2 2026-05-01 03:07 297K
20260501T00Z_MSC_RDPS_StormRelativeHelicity_EtaL-10000_RLatLon0.09_PT081H.grib2 2026-05-01 03:07 1.1M
20260501T00Z_MSC_RDPS_StormSeverityIndex_EtaL-10000_RLatLon0.09_PT081H.grib2 2026-05-01 03:07 1.2M
20260501T00Z_MSC_RDPS_Thickness_IsbL-0850to0700_RLatLon0.09_PT081H.grib2 2026-05-01 03:07 175K
20260501T00Z_MSC_RDPS_Thickness_IsbL-1000to0500_RLatLon0.09_PT081H.grib2 2026-05-01 03:07 195K
20260501T00Z_MSC_RDPS_Thickness_IsbL-1000to0850_RLatLon0.09_PT081H.grib2 2026-05-01 03:07 262K
20260501T00Z_MSC_RDPS_TotalCloudCover_Sfc_RLatLon0.09_PT081H.grib2 2026-05-01 03:07 674K
20260501T00Z_MSC_RDPS_TotalTotalsIndex_Sfc_RLatLon0.09_PT081H.grib2 2026-05-01 03:07 2.4M
20260501T00Z_MSC_RDPS_UVIndex-ClearSky_Sfc_RLatLon0.09_PT081H.grib2 2026-05-01 03:07 82K
20260501T00Z_MSC_RDPS_UVIndex_Sfc_RLatLon0.09_PT081H.grib2 2026-05-01 03:07 166K
20260501T00Z_MSC_RDPS_UpwardLongwaveRadiationFlux_NTAtm_RLatLon0.09_PT081H.grib2 2026-05-01 03:07 494K
20260501T00Z_MSC_RDPS_UpwardShortwaveRadiationFlux_NTAtm_RLatLon0.09_PT081H.grib2 2026-05-01 03:07 170K
20260501T00Z_MSC_RDPS_VerticalVelocity_IsbL-0250_RLatLon0.09_PT081H.grib2 2026-05-01 03:07 456K
20260501T00Z_MSC_RDPS_VerticalVelocity_IsbL-0500_RLatLon0.09_PT081H.grib2 2026-05-01 03:07 546K
20260501T00Z_MSC_RDPS_VerticalVelocity_IsbL-0700_RLatLon0.09_PT081H.grib2 2026-05-01 03:07 596K
20260501T00Z_MSC_RDPS_VerticalVelocity_IsbL-0850_RLatLon0.09_PT081H.grib2 2026-05-01 03:07 704K
20260501T00Z_MSC_RDPS_VerticalWindShear_EtaL-6500_RLatLon0.09_PT081H.grib2 2026-05-01 03:07 1.2M
20260501T00Z_MSC_RDPS_WindChill_Sfc_RLatLon0.09_PT081H.grib2 2026-05-01 03:07 1.1M
20260501T00Z_MSC_RDPS_WindDir_AGL-10m_RLatLon0.09_PT081H.grib2 2026-05-01 03:07 1.0M
20260501T00Z_MSC_RDPS_WindDir_AGL-120m_RLatLon0.09_PT081H.grib2 2026-05-01 03:07 617K
20260501T00Z_MSC_RDPS_WindDir_AGL-40m_RLatLon0.09_PT081H.grib2 2026-05-01 03:07 650K
20260501T00Z_MSC_RDPS_WindDir_AGL-80m_RLatLon0.09_PT081H.grib2 2026-05-01 03:07 629K
20260501T00Z_MSC_RDPS_WindDir_IsbL-0001_RLatLon0.09_PT081H.grib2 2026-05-01 03:07 302K
20260501T00Z_MSC_RDPS_WindDir_IsbL-0005_RLatLon0.09_PT081H.grib2 2026-05-01 03:07 378K
20260501T00Z_MSC_RDPS_WindDir_IsbL-0010_RLatLon0.09_PT081H.grib2 2026-05-01 03:07 392K
20260501T00Z_MSC_RDPS_WindDir_IsbL-0020_RLatLon0.09_PT081H.grib2 2026-05-01 03:07 434K
20260501T00Z_MSC_RDPS_WindDir_IsbL-0030_RLatLon0.09_PT081H.grib2 2026-05-01 03:07 427K
20260501T00Z_MSC_RDPS_WindDir_IsbL-0050_RLatLon0.09_PT081H.grib2 2026-05-01 03:07 419K
20260501T00Z_MSC_RDPS_WindDir_IsbL-0100_RLatLon0.09_PT081H.grib2 2026-05-01 03:07 412K
20260501T00Z_MSC_RDPS_WindDir_IsbL-0150_RLatLon0.09_PT081H.grib2 2026-05-01 03:07 406K
20260501T00Z_MSC_RDPS_WindDir_IsbL-0175_RLatLon0.09_PT081H.grib2 2026-05-01 03:07 429K
20260501T00Z_MSC_RDPS_WindDir_IsbL-0200_RLatLon0.09_PT081H.grib2 2026-05-01 03:07 449K
20260501T00Z_MSC_RDPS_WindDir_IsbL-0225_RLatLon0.09_PT081H.grib2 2026-05-01 03:07 449K
20260501T00Z_MSC_RDPS_WindDir_IsbL-0250_RLatLon0.09_PT081H.grib2 2026-05-01 03:07 447K
20260501T00Z_MSC_RDPS_WindDir_IsbL-0275_RLatLon0.09_PT081H.grib2 2026-05-01 03:07 468K
20260501T00Z_MSC_RDPS_WindDir_IsbL-0300_RLatLon0.09_PT081H.grib2 2026-05-01 03:07 467K
20260501T00Z_MSC_RDPS_WindDir_IsbL-0350_RLatLon0.09_PT081H.grib2 2026-05-01 03:07 494K
20260501T00Z_MSC_RDPS_WindDir_IsbL-0400_RLatLon0.09_PT081H.grib2 2026-05-01 03:07 514K
20260501T00Z_MSC_RDPS_WindDir_IsbL-0450_RLatLon0.09_PT081H.grib2 2026-05-01 03:07 523K
20260501T00Z_MSC_RDPS_WindDir_IsbL-0500_RLatLon0.09_PT081H.grib2 2026-05-01 03:07 532K
20260501T00Z_MSC_RDPS_WindDir_IsbL-0550_RLatLon0.09_PT081H.grib2 2026-05-01 03:07 545K
20260501T00Z_MSC_RDPS_WindDir_IsbL-0600_RLatLon0.09_PT081H.grib2 2026-05-01 03:07 569K
20260501T00Z_MSC_RDPS_WindDir_IsbL-0650_RLatLon0.09_PT081H.grib2 2026-05-01 03:07 605K
20260501T00Z_MSC_RDPS_WindDir_IsbL-0700_RLatLon0.09_PT081H.grib2 2026-05-01 03:07 645K
20260501T00Z_MSC_RDPS_WindDir_IsbL-0750_RLatLon0.09_PT081H.grib2 2026-05-01 03:07 697K
20260501T00Z_MSC_RDPS_WindDir_IsbL-0800_RLatLon0.09_PT081H.grib2 2026-05-01 03:07 773K
20260501T00Z_MSC_RDPS_WindDir_IsbL-0850_RLatLon0.09_PT081H.grib2 2026-05-01 03:07 871K
20260501T00Z_MSC_RDPS_WindDir_IsbL-0875_RLatLon0.09_PT081H.grib2 2026-05-01 03:07 907K
20260501T00Z_MSC_RDPS_WindDir_IsbL-0900_RLatLon0.09_PT081H.grib2 2026-05-01 03:07 919K
20260501T00Z_MSC_RDPS_WindDir_IsbL-0925_RLatLon0.09_PT081H.grib2 2026-05-01 03:07 929K
20260501T00Z_MSC_RDPS_WindDir_IsbL-0950_RLatLon0.09_PT081H.grib2 2026-05-01 03:07 929K
20260501T00Z_MSC_RDPS_WindDir_IsbL-0970_RLatLon0.09_PT081H.grib2 2026-05-01 03:07 936K
20260501T00Z_MSC_RDPS_WindDir_IsbL-0985_RLatLon0.09_PT081H.grib2 2026-05-01 03:07 945K
20260501T00Z_MSC_RDPS_WindDir_IsbL-1000_RLatLon0.09_PT081H.grib2 2026-05-01 03:07 963K
20260501T00Z_MSC_RDPS_WindDir_IsbL-1015_RLatLon0.09_PT081H.grib2 2026-05-01 03:07 1.0M
20260501T00Z_MSC_RDPS_WindGust-Max_AGL-10m_RLatLon0.09_PT081H.grib2 2026-05-01 03:07 1.0M
20260501T00Z_MSC_RDPS_WindGust-Min_AGL-10m_RLatLon0.09_PT081H.grib2 2026-05-01 03:07 971K
20260501T00Z_MSC_RDPS_WindGust_AGL-10m_RLatLon0.09_PT081H.grib2 2026-05-01 03:07 1.0M
20260501T00Z_MSC_RDPS_WindSpeed_AGL-10m_RLatLon0.09_PT081H.grib2 2026-05-01 03:07 848K
20260501T00Z_MSC_RDPS_WindSpeed_AGL-120m_RLatLon0.09_PT081H.grib2 2026-05-01 03:07 545K
20260501T00Z_MSC_RDPS_WindSpeed_AGL-40m_RLatLon0.09_PT081H.grib2 2026-05-01 03:07 548K
20260501T00Z_MSC_RDPS_WindSpeed_AGL-80m_RLatLon0.09_PT081H.grib2 2026-05-01 03:07 546K
20260501T00Z_MSC_RDPS_WindSpeed_IsbL-0001_RLatLon0.09_PT081H.grib2 2026-05-01 03:07 332K
20260501T00Z_MSC_RDPS_WindSpeed_IsbL-0005_RLatLon0.09_PT081H.grib2 2026-05-01 03:07 384K
20260501T00Z_MSC_RDPS_WindSpeed_IsbL-0010_RLatLon0.09_PT081H.grib2 2026-05-01 03:07 367K
20260501T00Z_MSC_RDPS_WindSpeed_IsbL-0020_RLatLon0.09_PT081H.grib2 2026-05-01 03:07 422K
20260501T00Z_MSC_RDPS_WindSpeed_IsbL-0030_RLatLon0.09_PT081H.grib2 2026-05-01 03:07 324K
20260501T00Z_MSC_RDPS_WindSpeed_IsbL-0050_RLatLon0.09_PT081H.grib2 2026-05-01 03:07 354K
20260501T00Z_MSC_RDPS_WindSpeed_IsbL-0100_RLatLon0.09_PT081H.grib2 2026-05-01 03:07 442K
20260501T00Z_MSC_RDPS_WindSpeed_IsbL-0150_RLatLon0.09_PT081H.grib2 2026-05-01 03:07 382K
20260501T00Z_MSC_RDPS_WindSpeed_IsbL-0175_RLatLon0.09_PT081H.grib2 2026-05-01 03:07 427K
20260501T00Z_MSC_RDPS_WindSpeed_IsbL-0200_RLatLon0.09_PT081H.grib2 2026-05-01 03:07 442K
20260501T00Z_MSC_RDPS_WindSpeed_IsbL-0225_RLatLon0.09_PT081H.grib2 2026-05-01 03:07 450K
20260501T00Z_MSC_RDPS_WindSpeed_IsbL-0250_RLatLon0.09_PT081H.grib2 2026-05-01 03:07 451K
20260501T00Z_MSC_RDPS_WindSpeed_IsbL-0275_RLatLon0.09_PT081H.grib2 2026-05-01 03:07 467K
20260501T00Z_MSC_RDPS_WindSpeed_IsbL-0300_RLatLon0.09_PT081H.grib2 2026-05-01 03:07 464K
20260501T00Z_MSC_RDPS_WindSpeed_IsbL-0350_RLatLon0.09_PT081H.grib2 2026-05-01 03:07 475K
20260501T00Z_MSC_RDPS_WindSpeed_IsbL-0400_RLatLon0.09_PT081H.grib2 2026-05-01 03:07 464K
20260501T00Z_MSC_RDPS_WindSpeed_IsbL-0450_RLatLon0.09_PT081H.grib2 2026-05-01 03:07 466K
20260501T00Z_MSC_RDPS_WindSpeed_IsbL-0500_RLatLon0.09_PT081H.grib2 2026-05-01 03:07 465K
20260501T00Z_MSC_RDPS_WindSpeed_IsbL-0550_RLatLon0.09_PT081H.grib2 2026-05-01 03:07 580K
20260501T00Z_MSC_RDPS_WindSpeed_IsbL-0600_RLatLon0.09_PT081H.grib2 2026-05-01 03:07 588K
20260501T00Z_MSC_RDPS_WindSpeed_IsbL-0650_RLatLon0.09_PT081H.grib2 2026-05-01 03:07 607K
20260501T00Z_MSC_RDPS_WindSpeed_IsbL-0700_RLatLon0.09_PT081H.grib2 2026-05-01 03:07 675K
20260501T00Z_MSC_RDPS_WindSpeed_IsbL-0750_RLatLon0.09_PT081H.grib2 2026-05-01 03:07 707K
20260501T00Z_MSC_RDPS_WindSpeed_IsbL-0800_RLatLon0.09_PT081H.grib2 2026-05-01 03:07 761K
20260501T00Z_MSC_RDPS_WindSpeed_IsbL-0850_RLatLon0.09_PT081H.grib2 2026-05-01 03:07 830K
20260501T00Z_MSC_RDPS_WindSpeed_IsbL-0875_RLatLon0.09_PT081H.grib2 2026-05-01 03:07 853K
20260501T00Z_MSC_RDPS_WindSpeed_IsbL-0900_RLatLon0.09_PT081H.grib2 2026-05-01 03:07 865K
20260501T00Z_MSC_RDPS_WindSpeed_IsbL-0925_RLatLon0.09_PT081H.grib2 2026-05-01 03:07 875K
20260501T00Z_MSC_RDPS_WindSpeed_IsbL-0950_RLatLon0.09_PT081H.grib2 2026-05-01 03:07 875K
20260501T00Z_MSC_RDPS_WindSpeed_IsbL-0970_RLatLon0.09_PT081H.grib2 2026-05-01 03:07 869K
20260501T00Z_MSC_RDPS_WindSpeed_IsbL-0985_RLatLon0.09_PT081H.grib2 2026-05-01 03:07 862K
20260501T00Z_MSC_RDPS_WindSpeed_IsbL-1000_RLatLon0.09_PT081H.grib2 2026-05-01 03:07 856K
20260501T00Z_MSC_RDPS_WindSpeed_IsbL-1015_RLatLon0.09_PT081H.grib2 2026-05-01 03:07 847K
20260501T00Z_MSC_RDPS_WindU_AGL-10m_RLatLon0.09_PT081H.grib2 2026-05-01 03:07 435K
20260501T00Z_MSC_RDPS_WindU_AGL-120m_RLatLon0.09_PT081H.grib2 2026-05-01 03:07 423K
20260501T00Z_MSC_RDPS_WindU_AGL-40m_RLatLon0.09_PT081H.grib2 2026-05-01 03:07 543K
20260501T00Z_MSC_RDPS_WindU_AGL-80m_RLatLon0.09_PT081H.grib2 2026-05-01 03:07 542K
20260501T00Z_MSC_RDPS_WindU_IsbL-0001_RLatLon0.09_PT081H.grib2 2026-05-01 03:07 244K
20260501T00Z_MSC_RDPS_WindU_IsbL-0005_RLatLon0.09_PT081H.grib2 2026-05-01 03:07 326K
20260501T00Z_MSC_RDPS_WindU_IsbL-0010_RLatLon0.09_PT081H.grib2 2026-05-01 03:07 298K
20260501T00Z_MSC_RDPS_WindU_IsbL-0020_RLatLon0.09_PT081H.grib2 2026-05-01 03:07 356K
20260501T00Z_MSC_RDPS_WindU_IsbL-0030_RLatLon0.09_PT081H.grib2 2026-05-01 03:07 356K
20260501T00Z_MSC_RDPS_WindU_IsbL-0050_RLatLon0.09_PT081H.grib2 2026-05-01 03:07 383K
20260501T00Z_MSC_RDPS_WindU_IsbL-0100_RLatLon0.09_PT081H.grib2 2026-05-01 03:07 338K
20260501T00Z_MSC_RDPS_WindU_IsbL-0150_RLatLon0.09_PT081H.grib2 2026-05-01 03:07 398K
20260501T00Z_MSC_RDPS_WindU_IsbL-0175_RLatLon0.09_PT081H.grib2 2026-05-01 03:07 324K
20260501T00Z_MSC_RDPS_WindU_IsbL-0200_RLatLon0.09_PT081H.grib2 2026-05-01 03:07 338K
20260501T00Z_MSC_RDPS_WindU_IsbL-0225_RLatLon0.09_PT081H.grib2 2026-05-01 03:07 342K
20260501T00Z_MSC_RDPS_WindU_IsbL-0250_RLatLon0.09_PT081H.grib2 2026-05-01 03:07 343K
20260501T00Z_MSC_RDPS_WindU_IsbL-0275_RLatLon0.09_PT081H.grib2 2026-05-01 03:07 356K
20260501T00Z_MSC_RDPS_WindU_IsbL-0300_RLatLon0.09_PT081H.grib2 2026-05-01 03:07 453K
20260501T00Z_MSC_RDPS_WindU_IsbL-0350_RLatLon0.09_PT081H.grib2 2026-05-01 03:07 464K
20260501T00Z_MSC_RDPS_WindU_IsbL-0400_RLatLon0.09_PT081H.grib2 2026-05-01 03:07 469K
20260501T00Z_MSC_RDPS_WindU_IsbL-0450_RLatLon0.09_PT081H.grib2 2026-05-01 03:07 470K
20260501T00Z_MSC_RDPS_WindU_IsbL-0500_RLatLon0.09_PT081H.grib2 2026-05-01 03:07 469K
20260501T00Z_MSC_RDPS_WindU_IsbL-0550_RLatLon0.09_PT081H.grib2 2026-05-01 03:07 451K
20260501T00Z_MSC_RDPS_WindU_IsbL-0600_RLatLon0.09_PT081H.grib2 2026-05-01 03:07 459K
20260501T00Z_MSC_RDPS_WindU_IsbL-0650_RLatLon0.09_PT081H.grib2 2026-05-01 03:07 477K
20260501T00Z_MSC_RDPS_WindU_IsbL-0700_RLatLon0.09_PT081H.grib2 2026-05-01 03:07 500K
20260501T00Z_MSC_RDPS_WindU_IsbL-0750_RLatLon0.09_PT081H.grib2 2026-05-01 03:07 528K
20260501T00Z_MSC_RDPS_WindU_IsbL-0800_RLatLon0.09_PT081H.grib2 2026-05-01 03:07 575K
20260501T00Z_MSC_RDPS_WindU_IsbL-0850_RLatLon0.09_PT081H.grib2 2026-05-01 03:07 635K
20260501T00Z_MSC_RDPS_WindU_IsbL-0875_RLatLon0.09_PT081H.grib2 2026-05-01 03:07 662K
20260501T00Z_MSC_RDPS_WindU_IsbL-0900_RLatLon0.09_PT081H.grib2 2026-05-01 03:07 670K
20260501T00Z_MSC_RDPS_WindU_IsbL-0925_RLatLon0.09_PT081H.grib2 2026-05-01 03:07 670K
20260501T00Z_MSC_RDPS_WindU_IsbL-0950_RLatLon0.09_PT081H.grib2 2026-05-01 03:07 665K
20260501T00Z_MSC_RDPS_WindU_IsbL-0970_RLatLon0.09_PT081H.grib2 2026-05-01 03:07 661K
20260501T00Z_MSC_RDPS_WindU_IsbL-0985_RLatLon0.09_PT081H.grib2 2026-05-01 03:07 796K
20260501T00Z_MSC_RDPS_WindU_IsbL-1000_RLatLon0.09_PT081H.grib2 2026-05-01 03:07 792K
20260501T00Z_MSC_RDPS_WindU_IsbL-1015_RLatLon0.09_PT081H.grib2 2026-05-01 03:07 785K
20260501T00Z_MSC_RDPS_WindV_AGL-10m_RLatLon0.09_PT081H.grib2 2026-05-01 03:07 435K
20260501T00Z_MSC_RDPS_WindV_AGL-120m_RLatLon0.09_PT081H.grib2 2026-05-01 03:07 540K
20260501T00Z_MSC_RDPS_WindV_AGL-40m_RLatLon0.09_PT081H.grib2 2026-05-01 03:07 543K
20260501T00Z_MSC_RDPS_WindV_AGL-80m_RLatLon0.09_PT081H.grib2 2026-05-01 03:07 541K
20260501T00Z_MSC_RDPS_WindV_IsbL-0001_RLatLon0.09_PT081H.grib2 2026-05-01 03:07 248K
20260501T00Z_MSC_RDPS_WindV_IsbL-0005_RLatLon0.09_PT081H.grib2 2026-05-01 03:07 285K
20260501T00Z_MSC_RDPS_WindV_IsbL-0010_RLatLon0.09_PT081H.grib2 2026-05-01 03:07 300K
20260501T00Z_MSC_RDPS_WindV_IsbL-0020_RLatLon0.09_PT081H.grib2 2026-05-01 03:07 317K
20260501T00Z_MSC_RDPS_WindV_IsbL-0030_RLatLon0.09_PT081H.grib2 2026-05-01 03:07 317K
20260501T00Z_MSC_RDPS_WindV_IsbL-0050_RLatLon0.09_PT081H.grib2 2026-05-01 03:07 347K
20260501T00Z_MSC_RDPS_WindV_IsbL-0100_RLatLon0.09_PT081H.grib2 2026-05-01 03:07 335K
20260501T00Z_MSC_RDPS_WindV_IsbL-0150_RLatLon0.09_PT081H.grib2 2026-05-01 03:07 397K
20260501T00Z_MSC_RDPS_WindV_IsbL-0175_RLatLon0.09_PT081H.grib2 2026-05-01 03:07 324K
20260501T00Z_MSC_RDPS_WindV_IsbL-0200_RLatLon0.09_PT081H.grib2 2026-05-01 03:07 363K
20260501T00Z_MSC_RDPS_WindV_IsbL-0225_RLatLon0.09_PT081H.grib2 2026-05-01 03:07 367K
20260501T00Z_MSC_RDPS_WindV_IsbL-0250_RLatLon0.09_PT081H.grib2 2026-05-01 03:07 367K
20260501T00Z_MSC_RDPS_WindV_IsbL-0275_RLatLon0.09_PT081H.grib2 2026-05-01 03:07 379K
20260501T00Z_MSC_RDPS_WindV_IsbL-0300_RLatLon0.09_PT081H.grib2 2026-05-01 03:07 375K
20260501T00Z_MSC_RDPS_WindV_IsbL-0350_RLatLon0.09_PT081H.grib2 2026-05-01 03:07 383K
20260501T00Z_MSC_RDPS_WindV_IsbL-0400_RLatLon0.09_PT081H.grib2 2026-05-01 03:07 364K
20260501T00Z_MSC_RDPS_WindV_IsbL-0450_RLatLon0.09_PT081H.grib2 2026-05-01 03:07 366K
20260501T00Z_MSC_RDPS_WindV_IsbL-0500_RLatLon0.09_PT081H.grib2 2026-05-01 03:07 366K
20260501T00Z_MSC_RDPS_WindV_IsbL-0550_RLatLon0.09_PT081H.grib2 2026-05-01 03:07 468K
20260501T00Z_MSC_RDPS_WindV_IsbL-0600_RLatLon0.09_PT081H.grib2 2026-05-01 03:07 474K
20260501T00Z_MSC_RDPS_WindV_IsbL-0650_RLatLon0.09_PT081H.grib2 2026-05-01 03:07 491K
20260501T00Z_MSC_RDPS_WindV_IsbL-0700_RLatLon0.09_PT081H.grib2 2026-05-01 03:07 511K
20260501T00Z_MSC_RDPS_WindV_IsbL-0750_RLatLon0.09_PT081H.grib2 2026-05-01 03:07 537K
20260501T00Z_MSC_RDPS_WindV_IsbL-0800_RLatLon0.09_PT081H.grib2 2026-05-01 03:07 571K
20260501T00Z_MSC_RDPS_WindV_IsbL-0850_RLatLon0.09_PT081H.grib2 2026-05-01 03:07 633K
20260501T00Z_MSC_RDPS_WindV_IsbL-0875_RLatLon0.09_PT081H.grib2 2026-05-01 03:07 655K
20260501T00Z_MSC_RDPS_WindV_IsbL-0900_RLatLon0.09_PT081H.grib2 2026-05-01 03:07 663K
20260501T00Z_MSC_RDPS_WindV_IsbL-0925_RLatLon0.09_PT081H.grib2 2026-05-01 03:07 671K
20260501T00Z_MSC_RDPS_WindV_IsbL-0950_RLatLon0.09_PT081H.grib2 2026-05-01 03:07 666K
20260501T00Z_MSC_RDPS_WindV_IsbL-0970_RLatLon0.09_PT081H.grib2 2026-05-01 03:07 663K
20260501T00Z_MSC_RDPS_WindV_IsbL-0985_RLatLon0.09_PT081H.grib2 2026-05-01 03:07 658K
20260501T00Z_MSC_RDPS_WindV_IsbL-1000_RLatLon0.09_PT081H.grib2 2026-05-01 03:07 792K
20260501T00Z_MSC_RDPS_WindV_IsbL-1015_RLatLon0.09_PT081H.grib2 2026-05-01 03:07 785K